"Pseudo-MPEC" for P11dyty

Created 2021 Feb 24 4:07:20 UT using Find_Orb

Click here for an explanation of pseudo-MPECs

 
 Astrometry: 
     P11dyty  C2021 02 170/m8h5;OChv_E/=MM-3V9n=$#SmfkXv9JN?nq-D1S.1J[8WnHKNhF51
     P11dyty  C2021 02 17,suT`A26Z\T.!YcGjpUU@jmQ8oA1DM_@'Ea9[uOi)+lnmadH^ld5F51
     P11dyty  C2021 02 17*Yl%EjS*04)K(FW-)y0FaNH#2:Ay!H$81*#FgN(+O982Vl2f8soaF51
     P11dyty |C2021 02 18Q'Ur].M+3AstrometryMDx1GxxOredacted;)$@v7vBclickI4w1807
     P11dyty |C2021 02 18ONm+*9N6U4%g[#?d^Ii$yZTA]JUZ6+b)jc3)k#dF7igLF-here7*807
     P11dyty |C2021 02 180b/:pPwA_2WDt:47'r(+\)v%pI%#`d3@LBZCL1fCu0riE/pq8!SA807
     P11dyty |C2021 02 19xXk!]oaGfor('N%aK+riqp\h-'wWRi3+de=VfT%MV-.^fI/LARCk807
     P11dyty |C2021 02 19J%Y1`1h8!w?fnORITYY;g=(6T2XQ#\W7mqH[d]au#VJVY$il@W/G807
     P11dyty |C2021 02 195VYG-7)NvjP1T,no(L%R(81K*Q(9SP(cc)JTfC(32NA?v6!Hp-*.807
     P11dyty |C2021 02 23V9o8,hie,r6`9YCUF/explanation)gNZW)(M7g\UCO%[5'$$GdQ807
     P11dyty |C2021 02 23]JjpGyW]]_=:iyhZf$i/-nEvPIUw3,47P^_)pf7/)QR]s2IQ3^JX807
     P11dyty |C2021 02 235'jQnPe_#xcWnPn$3F0psCtKy-cIex$FhUnuSxxRbVlJX%JiPDfJ807

Station data:
(807) Cerro Tololo Observatory, La Serena  (S30.169136 W70.805900)  Chile.
(F51) Pan-STARRS 1, Haleakala  (N20.707235 W156.255910)  US/Hawaii.
   Observers N. Primak, A. Schultz, S. Watters, J. Thiel, T. Goggia. Measurer
   PS1 Science Consortium. 1.8-m Ritchey-Chrétien + CCD.

Orbital elements:  P11dyty
   Perihelion 2020 Mar 20.384153 +/- 4.41145 TT =  9:13:10 (JD 2458928.884153)
Epoch 2021 Feb 23.0 TT = JDT 2459268.5   Earth MOID: 0.7142   AutoNEOCP
M 128.75754555 +/- 1.9251838        (J2000 ecliptic)
n   0.37912702 +/- 0.0010096        Peri.   88.25229 +/- 0.9008725
a   1.89065761 +/- 0.0033561        Node   277.42028 +/- 0.3122627
e   0.1484721 +/- 0.0066443         Incl.   18.04648 +/- 0.1510012
P   2.60/949.53d           H 20.1   G  0.15   U  8.2  
q 1.60994755 +/- 0.00984748    Q 2.17136766 +/- 0.0162581
From 12 observations 2021 Feb. 17-23; mean residual 0".10
Residuals in arcseconds: 
210217 F51  .03+  .13+    210218 807  .06-  .03+    210219 807  .02-  .02-    
210217 F51  .13+  .05+    210218 807  .08-  .11-    210223 807  .23+  .05-    
210217 F51  .04-  .08-    210219 807  .03-  .04+    210223 807  .09-  .03+    
210218 807  .16-  .15-    210219 807  .20+  .08+    210223 807  .14-  .02+    

Ephemerides (geocentric):
Date (UTC) HH   RA              Dec         delta   r     elong  mag " sig PA
---- -- -- --  -------------   -----------  ------ ------ -----  --- ---- ---
2021 02 24 04  08 43 53.542   -07 21 23.41  1.1793 2.0898 148.8 22.9 .360  23
2021 02 24 05  08 43 50.888   -07 21 15.06  1.1795 2.0899 148.8 22.9 .375  23
2021 02 24 06  08 43 48.237   -07 21 06.68  1.1797 2.0899 148.8 22.9 .391  23
2021 02 24 07  08 43 45.589   -07 20 58.29  1.1799 2.0900 148.7 22.9 .408  23
2021 02 24 08  08 43 42.945   -07 20 49.87  1.1802 2.0900 148.7 22.9 .424  23
2021 02 24 09  08 43 40.305   -07 20 41.43  1.1804 2.0901 148.7 22.9 .440  23
2021 02 24 10  08 43 37.667   -07 20 32.98  1.1806 2.0901 148.6 22.9 .457  23
2021 02 24 11  08 43 35.034   -07 20 24.50  1.1808 2.0902 148.6 22.9 .474  23
2021 02 24 12  08 43 32.403   -07 20 16.00  1.1810 2.0902 148.6 22.9 .491  23
2021 02 24 13  08 43 29.776   -07 20 07.49  1.1812 2.0903 148.5 22.9 .508  23
2021 02 24 14  08 43 27.153   -07 19 58.95  1.1815 2.0903 148.5 22.9 .526  23
2021 02 24 15  08 43 24.533   -07 19 50.39  1.1817 2.0904 148.5 22.9 .543  23
2021 02 24 16  08 43 21.916   -07 19 41.81  1.1819 2.0904 148.4 22.9 .561  23
2021 02 24 17  08 43 19.303   -07 19 33.22  1.1821 2.0905 148.4 22.9 .579  23
2021 02 24 18  08 43 16.693   -07 19 24.60  1.1823 2.0905 148.4 22.9 .597  23
2021 02 24 19  08 43 14.087   -07 19 15.97  1.1825 2.0906 148.3 22.9 .615  23
2021 02 24 20  08 43 11.485   -07 19 07.31  1.1828 2.0906 148.3 22.9 .634  23
2021 02 24 21  08 43 08.885   -07 18 58.63  1.1830 2.0907 148.3 22.9 .653  23
2021 02 24 22  08 43 06.289   -07 18 49.94  1.1832 2.0907 148.2 22.9 .671  23
2021 02 24 23  08 43 03.697   -07 18 41.22  1.1834 2.0908 148.2 22.9 .690  23
2021 02 25 00  08 43 01.108   -07 18 32.49  1.1837 2.0908 148.2 22.9 .710  23
2021 02 25 01  08 42 58.523   -07 18 23.74  1.1839 2.0908 148.1 22.9 .729  24
2021 02 25 02  08 42 55.941   -07 18 14.96  1.1841 2.0909 148.1 22.9 .749  24
2021 02 25 03  08 42 53.363   -07 18 06.17  1.1843 2.0909 148.1 22.9 .768  24
2021 02 25 04  08 42 50.788   -07 17 57.36  1.1845 2.0910 148.0 22.9 .788  24
2021 02 25 05  08 42 48.216   -07 17 48.53  1.1848 2.0910 148.0 22.9 .809  24
2021 02 25 06  08 42 45.648   -07 17 39.68  1.1850 2.0911 148.0 22.9 .829  24
2021 02 25 07  08 42 43.084   -07 17 30.81  1.1852 2.0911 147.9 22.9 .849  24
2021 02 25 08  08 42 40.523   -07 17 21.92  1.1854 2.0912 147.9 22.9 .870  24
2021 02 25 09  08 42 37.966   -07 17 13.01  1.1857 2.0912 147.9 22.9 .891  24
2021 02 25 10  08 42 35.412   -07 17 04.08  1.1859 2.0913 147.8 22.9 .912  24
2021 02 25 11  08 42 32.862   -07 16 55.14  1.1861 2.0913 147.8 22.9 .933  24
2021 02 25 12  08 42 30.315   -07 16 46.17  1.1863 2.0914 147.8 22.9 .955  24
2021 02 25 13  08 42 27.771   -07 16 37.19  1.1866 2.0914 147.7 22.9 .976  24
2021 02 25 14  08 42 25.232   -07 16 28.19  1.1868 2.0915 147.7 22.9 1.00  24
2021 02 25 15  08 42 22.695   -07 16 19.17  1.1870 2.0915 147.7 22.9 1.02  24
2021 02 25 16  08 42 20.163   -07 16 10.13  1.1872 2.0916 147.6 22.9 1.04  24
2021 02 25 17  08 42 17.634   -07 16 01.07  1.1875 2.0916 147.6 22.9 1.06  24
2021 02 25 18  08 42 15.108   -07 15 51.99  1.1877 2.0917 147.6 22.9 1.09  24
2021 02 25 19  08 42 12.586   -07 15 42.89  1.1879 2.0917 147.5 22.9 1.11  25
2021 02 25 20  08 42 10.067   -07 15 33.78  1.1881 2.0918 147.5 22.9 1.13  25
2021 02 25 21  08 42 07.552   -07 15 24.64  1.1884 2.0918 147.4 22.9 1.16  25
2021 02 25 22  08 42 05.041   -07 15 15.49  1.1886 2.0919 147.4 22.9 1.18  25
2021 02 25 23  08 42 02.533   -07 15 06.32  1.1888 2.0919 147.4 22.9 1.20  25
2021 02 26 00  08 42 00.029   -07 14 57.13  1.1891 2.0920 147.3 22.9 1.23  25
2021 02 26 01  08 41 57.528   -07 14 47.93  1.1893 2.0920 147.3 22.9 1.25  25
2021 02 26 02  08 41 55.031   -07 14 38.70  1.1895 2.0921 147.3 22.9 1.27  25
2021 02 26 03  08 41 52.537   -07 14 29.46  1.1898 2.0921 147.2 22.9 1.30  25